Vorticity
3 4 6 7 9 10 12 13 9 5 8 6 10 12 10 16 4 5 5 -1 8 3
7 4 4 7 8 7 7 10 10 10 6 8 6 9 10 13 13 10 2 13 0 -0
8 10 8 6 7 11 11 11 10 10 8 7 9 7 6 10 11 10 15 5 8 3
6 7 10 10 7 5 9 10 7 10 15 10 6 8 9 7 8 11 12 12 13 8
9 9 8 8 11 9 11 7 8 7 9 15 9 8 7 8 7 7 10 12 11 9
13 13 5 1 4 6 13 10 10 8 5 4 10 13 8 7 9 7 4 10 10 12
13 12 12 15 10 7 8 4 10 12 4 8 5 10 6 9 6 7 9 7 9 10
12 12 12 16 10 7 5 4 14 28 52 -18 72 19 3 6 13 10 9 7 8 10
10 11 11 10 12 18 15 12 15 13 8 84 58 19 76 4 7 6 9 10 9 7
6 6 6 5 11 8 5 7 13 12 8 18 26 71 -2 4 18 -10 7 10 11 12
8 4 10 6 9 11 10 8 8 8 10 2 21 51 20 11 19 -5 55 5 1 14
5 9 7 9 11 8 12 10 11 11 8 -4 19 -1 23 37 38 45 13 15 6 14
6 7 8 7 7 14 7 8 10 6 14 -1 -1 35 11 27 9 6 22 13 10 16
4 11 9 8 6 7 8 7 6 10 10 6 16 -1 33 5 3 13 16 7 14 16
Height
5945 5943 5940 5937 5936 5936 5936 5935 5934 5933 5932 5932 5931 5931 5932 5932 5934 5935 5935 5937 5937 5938
5943 5941 5939 5936 5935 5934 5934 5934 5933 5932 5932 5931 5930 5929 5929 5929 5930 5931 5932 5932 5934 5936
5940 5939 5937 5935 5934 5934 5933 5932 5930 5929 5928 5928 5927 5927 5926 5926 5926 5926 5927 5928 5929 5931
5938 5936 5935 5933 5932 5930 5930 5930 5928 5926 5925 5925 5923 5923 5923 5922 5921 5922 5923 5923 5923 5925
5937 5935 5934 5932 5930 5928 5928 5926 5923 5922 5921 5920 5919 5917 5915 5917 5917 5917 5918 5918 5919 5920
5934 5933 5931 5928 5927 5926 5925 5923 5919 5916 5912 5911 5909 5908 5908 5908 5910 5910 5911 5913 5914 5914
5932 5929 5926 5925 5923 5922 5921 5917 5915 5909 5908 5900 5893 5900 5900 5901 5903 5904 5905 5908 5910 5910
5929 5926 5923 5921 5918 5917 5915 5914 5909 5892 5886 5896 5880 5887 5891 5893 5900 5902 5901 5902 5904 5906
5924 5922 5920 5917 5916 5914 5911 5909 5908 5906 5899 5893 5885 5879 5879 5887 5892 5895 5896 5897 5897 5899
5922 5919 5916 5912 5911 5909 5905 5905 5904 5900 5895 5886 5884 5883 5881 5884 5883 5881 5886 5889 5891 5892
5918 5915 5912 5908 5907 5904 5904 5900 5895 5891 5890 5888 5881 5880 5876 5877 5877 5878 5876 5880 5885 5886
5913 5910 5907 5905 5903 5900 5897 5897 5896 5892 5889 5885 5875 5872 5873 5871 5869 5867 5873 5873 5874 5877
5908 5906 5902 5899 5899 5895 5892 5891 5890 5886 5884 5878 5875 5872 5867 5866 5866 5867 5866 5865 5868 5870
5901 5899 5897 5893 5892 5891 5888 5884 5881 5880 5878 5876 5873 5872 5864 5863 5863 5864 5863 5861 5863 5865